Showing default

OSCAR 23 (KITSAT 1), 22077

Orbit data source: Space-Track

OSCAR 23 (KITSAT 1), 22077 is a payload satellite owned by KAIST (KR) in LEO that was launched on Mon, 10 Aug 1992 UTC via an ARIANE 42P launch vehicle from the French Guiana (FRGUI). Payload-class satellites include a variety of spacecraft equipped with specific instruments for various scientific and technological missions. These include communications satellites like Starlink; space stations such as the ISS; scientific satellites like the Hubble; Earth observation satellites from companies like Planet Labs, Umbra, and HawkEye 360; GPS; miniature CubeSats for education and research; and military/defense satellites.

Loading next visibility...
Identifier
22077, 1992-052B
Orbit
LEO
Last TLE update
12 hours ago
Origin
Manufacturer
SSTL
Mission
Non-operational Civil Communications
Bus & Motor
UOSAT, Unknown motor
Mass
48 kg wet, 48 kg dry
Launch date (UTC)
1992-08-10 (33 years ago)
Launch vehicle
ARIANE 42P
Launch site
French Guiana (FRGUI)
Object type
Payload
Rocket body
Debris
Shape & HBR
Hex Poly, 0.67 m
Radar Cross Section
0.353 m², Medium (>0.1 m² and < 1m²)

Expand to show TLE details & history

TLE from 12 hours ago
0 OSCAR 23 (KITSAT 1)
1 22077U 92052B   25132.98288543 -.00000045  00000-0  67482-4 0  9997
2 22077  66.0869  39.5192 0004139 194.5087 178.4101 12.86597508538206
Epoch: 2025-05-12T23:35Z
Definitive object data (Epoch: 2025-05-12T23:35:21.301Z)
Latitude
11.7681°
Longitude
179.96608°
Altitude
1,319.408 km
Speed
7.197 km/s
True Right ascension
02h 59m 10s
True Declination
11° 42' 17"
Sunlit
Object was in daylight at TLE epoch
Visualization TLE readout
Latitude
-7.46081°
Longitude
-3.0513°
Altitude
1,315.087 km
Speed
7.201 km/s
Apparent Right ascension
12h 25m 16s
Apparent Declination
-31° 20' 38"
Sunlit
Object is in full shadow
Visualization observer readout
Local Sidereal Time
20:06:52
Azimuth
258.006° W
Elevation
-37.934°
Doppler factor
1
Orbital elements
Apogee altitude
1,316.794 km
Perigee altitude
1,310.427 km
Semi-major axis
7,691.748 km
Eccentricity
0.0004139
Inclination
66.0869°
RAAN
39.5192°
Arg. of periapsis
194.5087°
True anomaly
178.41142°
Mean anomaly
178.4101°
Eccentric anomaly
178.41076°
Mean motion
3.2174 °/min
BSTAR
0.000067482
Orbital period
111.89 mins
Loading maneuver chart data...
Loading SW <> Apogee altitude chart data...
Loading historical data...
Loading historical data...
Loading historical data...
Loading historical data...
Loading historical data...
Loading historical data...
Loading historical data...

OSCAR 23 (KITSAT 1) Visibility forecast

Observer location: undefined°, undefined°

Span
Click to sort rows by Start time (UTC) header in descending order
Start Az.
Max El. time (UTC)
Max El. Az.
Max El.
End time (UTC)
End Az.
13 mins2025-05-13 18:16:24.396Z168.42° S2025-05-13 18:23:24.396Z100.542° ESE30.382°2025-05-13 18:29:24.396Z47.931° ENE
14 mins2025-05-13 20:11:24.396Z234.855° WSW2025-05-13 20:18:24.396Z316.447° NNW38.051°2025-05-13 20:25:24.396Z21.617° NNE
7 mins2025-05-13 22:12:24.396Z306.553° NW2025-05-13 22:15:24.396Z330.673° NNW14.979°2025-05-13 22:19:24.396Z2.254° NNE
9 mins2025-05-14 02:10:24.396Z356.548° N2025-05-14 02:14:24.396Z29.664° NE18.542°2025-05-14 02:19:24.396Z72.234° E
14 mins2025-05-14 04:05:24.396Z335.595° NNW2025-05-14 04:11:24.396Z36.144° NE43.108°2025-05-14 04:19:24.396Z140.966° SSE
11 mins2025-05-14 06:01:24.396Z300.395° NW2025-05-14 06:06:24.396Z256.528° W22.616°2025-05-14 06:12:24.396Z206.37° SW
|